User: anonymous   Login
Location: Unspecified
(0.0000°N, 0.0000°E)
Time: 06:47:16
(UTC+00:00)
Language:

STARLINK-2098 - Orbit

View from above orbital plane
View from above orbital plane
View from above satellite
View from above satellite

Ground track
Ground track

The orbit is defined by the following mean orbital elements,

1 47378U          26145.37579841 +.00000000 +00000-0 +44469-4 0 00005
2 47378  53.1601  17.4955 0001320 101.9654 258.1496 15.31704414    05
Epoch (UTC): 25 May 2026 09:01:08
Eccentricity: 0.0001320
inclination: 53.1601°
perigee height: 470 km
apogee height: 472 km
right ascension of ascending node: 17.4955°
argument of perigee: 101.9654°
revolutions per day: 15.31704414
mean anomaly at epoch: 258.1496°

The dashed part of the orbit path shows where the satellite is in the earth's shadow,  

DLR